TimeEDT,TemperatureF,Dew PointF,Humidity,Sea Level PressureIn,VisibilityMPH,Wind Direction,Wind SpeedMPH,Gust SpeedMPH,PrecipitationIn,Events,Conditions,WindDirDegrees,DateUTC
12:55 AM,50.2,39.0,66,30.32,10.0,Calm,Calm,-,N/A,,Clear,0,2013-04-28 04:55:00
1:55 AM,48.2,37.6,67,30.31,10.0,Calm,Calm,-,N/A,,Clear,0,2013-04-28 05:55:00
2:55 AM,41.5,38.5,89,30.31,10.0,Calm,Calm,-,N/A,,Clear,0,2013-04-28 06:55:00
3:55 AM,39.0,38.5,98,30.30,10.0,NNE,3.5,-,N/A,,Clear,30,2013-04-28 07:55:00
4:55 AM,34.9,34.3,98,30.30,10.0,Calm,Calm,-,N/A,,Clear,0,2013-04-28 08:55:00
5:25 AM,35.6,35.6,100,30.29,2.5,Calm,Calm,-,N/A,,Clear,0,2013-04-28 09:25:00
5:31 AM,37.4,37.4,100,30.29,3.0,Calm,Calm,-,N/A,,Clear,0,2013-04-28 09:31:00
5:55 AM,35.8,35.4,99,30.30,10.0,Calm,Calm,-,N/A,,Clear,0,2013-04-28 09:55:00
6:55 AM,38.5,38.1,99,30.31,10.0,NNE,3.5,-,N/A,,Clear,30,2013-04-28 10:55:00
7:55 AM,47.5,40.8,78,30.34,10.0,Calm,Calm,-,N/A,,Clear,0,2013-04-28 11:55:00
8:55 AM,52.5,40.3,63,30.33,10.0,North,3.5,-,N/A,,Clear,10,2013-04-28 12:55:00
9:55 AM,56.5,39.4,53,30.33,10.0,Calm,Calm,-,N/A,,Clear,0,2013-04-28 13:55:00
10:55 AM,61.5,36.5,39,30.31,10.0,SSW,4.6,-,N/A,,Clear,210,2013-04-28 14:55:00
11:55 AM,65.3,36.1,34,30.30,10.0,South,5.8,-,N/A,,Clear,170,2013-04-28 15:55:00
12:55 PM,68.5,33.8,28,30.27,10.0,South,8.1,-,N/A,,Clear,180,2013-04-28 16:55:00
1:55 PM,70.0,34.2,27,30.25,10.0,South,5.8,-,N/A,,Clear,170,2013-04-28 17:55:00
2:55 PM,71.8,36.0,27,30.22,10.0,SSW,11.5,-,N/A,,Clear,200,2013-04-28 18:55:00
3:55 PM,70.9,34.5,26,30.20,10.0,SSE,4.6,-,N/A,,Clear,160,2013-04-28 19:55:00
4:55 PM,70.2,36.3,29,30.20,10.0,South,9.2,-,N/A,,Clear,170,2013-04-28 20:55:00
5:55 PM,66.4,34.5,31,30.20,10.0,South,15.0,-,N/A,,Clear,190,2013-04-28 21:55:00
6:55 PM,62.2,32.9,33,30.20,10.0,SSW,15.0,-,N/A,,Clear,200,2013-04-28 22:55:00
7:55 PM,59.2,31.6,35,30.20,10.0,South,15.0,21.9,N/A,,Clear,180,2013-04-28 23:55:00
8:55 PM,57.0,29.5,35,30.23,10.0,South,8.1,-,N/A,,Clear,180,2013-04-29 00:55:00
9:55 PM,54.1,29.7,39,30.24,10.0,South,9.2,-,N/A,,Clear,180,2013-04-29 01:55:00
10:55 PM,53.2,27.3,37,30.24,10.0,South,10.4,-,N/A,,Clear,170,2013-04-29 02:55:00
11:55 PM,52.2,25.0,35,30.26,10.0,South,9.2,-,N/A,,Clear,170,2013-04-29 03:55:00